Location: Grasslands National Park East Block
(49.0708°N, 106.5295°W)
Time: 10:51:10
(UTC-06:00)

Vanguard 1 Rocket - Pass Details

Date: 22 September 2019
Orbit: 650 x 4226 km, 34.3° (Epoch: 20 October)

Event Time Altitude Azimuth Distance (km) Brightness Sun altitude
Rises 15:55:43 0° 201° (SSW) 8,421 13.2 28.1°
Reaches altitude 10° 16:03:26 10° 190° (S) 7,410 12.8 27.1°
Maximum altitude 16:21:07 25° 146° (SE) 5,526 11.5 24.7°
Drops below altitude 10° 16:34:30 10° 100° (E) 5,625 11.1 22.8°
Sets 16:39:05 0° 88° (E) 6,133 11.1 22.1°
